Mount Pleasant, TX

4:51 AM CDT on September 28, 2016 (GMT -0500)
Mount Pleasant

Weather History for KOSA - December, 2012

Change the Weather History Date:

Saturday, December 22, 2012

  Actual Average (KGGG) Record (KGGG)
Temperature  
Mean Temperature 45 °F 47 °F  
Max Temperature 64 °F 57 °F 80 °F (1931)
Min Temperature 26 °F 36 °F 18 °F (1951)
Degree Days  
Heating Degree Days 20 18  
Month to date heating degree days 367  
Since 1 July heating degree days 739  
Cooling Degree Days 0 0  
Month to date cooling degree days 0  
Year to date cooling degree days 2417  
Moisture  
Dew Point 32 °F    
Average Humidity 59    
Maximum Humidity 93    
Minimum Humidity 22    
Precipitation  
Precipitation 0.00 in 0.14 in 1.35 in (1907)
Month to date precipitation 3.34  
Year to date precipitation 46.40  
Snow  
Snow 0.00 in - - ()
Month to date snowfall  
Since 1 July snowfall  
Snow Depth -    
Sea Level Pressure  
Sea Level Pressure 30.24 in    
Wind  
Wind Speed 6 mph (SSE)    
Max Wind Speed 18 mph    
Max Gust Speed 24 mph    
Visibility 10 miles    
Events      
T = Trace of Precipitation, MM = Missing Value Source: NWS Daily Summary

Daily Weather History Graph

Daily Weather History Graph

Search for Another Location

Airport or City:

Trip Planner

Search our weather history database for the weather conditions in past years. The results will help you decide how hot, cold, wet, or windy it might be!

Date:

Astronomy

Dec. 22, 2012 Rise Set
Actual Time 7:19 AM CST 5:17 PM CST
Civil Twilight 6:52 AM CST 5:45 PM CST
Nautical Twilight 6:21 AM CST 6:16 PM CST
Astronomical Twilight 5:51 AM CST 6:46 PM CST
Moon 1:27 PM CST (12/22) 2:15 AM CST (12/22)
Length of Visible Light 10h 52m
Length of Day
9h 57m
Waxing Gibbous, 74% of the Moon is Illuminated
Dec 22
Waxing Gibbous
Dec 28
Full
Jan 4
Last Quarter
Jan 11
New
Jan 18
First Quarter

Hourly Weather History & Observations

Time (CST) Temp. Windchill Dew Point Humidity Pressure Visibility Wind Dir Wind Speed Gust Speed Precip Events Conditions
12:15 AM 35.6 °F 32.8 °F 26.6 °F 70% 30.34 in 10.0 mi ESE 3.5 mph - N/A   Clear
12:35 AM 35.6 °F 32.8 °F 26.6 °F 70% 30.34 in 10.0 mi ESE 3.5 mph - N/A   Clear
12:55 AM 35.6 °F 32.8 °F 26.6 °F 70% 30.34 in 10.0 mi ESE 3.5 mph - N/A   Clear
1:15 AM 35.6 °F 32.8 °F 26.6 °F 70% 30.34 in 10.0 mi SE 3.5 mph - N/A   Clear
1:35 AM 33.8 °F 29.6 °F 26.6 °F 75% 30.34 in 10.0 mi ESE 4.6 mph - N/A   Clear
1:55 AM 33.8 °F 28.6 °F 24.8 °F 70% 30.33 in 10.0 mi ESE 5.8 mph - N/A   Clear
2:15 AM 32.0 °F 27.5 °F 26.6 °F 80% 30.33 in 10.0 mi SE 4.6 mph - N/A   Clear
2:35 AM 32.0 °F 27.5 °F 24.8 °F 75% 30.33 in 10.0 mi ESE 4.6 mph - N/A   Clear
2:55 AM 33.8 °F 29.6 °F 24.8 °F 70% 30.33 in 10.0 mi ESE 4.6 mph - N/A   Clear
3:15 AM 32.0 °F 27.5 °F 24.8 °F 75% 30.33 in 10.0 mi ESE 4.6 mph - N/A   Clear
3:35 AM 32.0 °F - 24.8 °F 75% 30.32 in 10.0 mi Calm Calm - N/A   Clear
3:55 AM 32.0 °F 28.7 °F 24.8 °F 75% 30.32 in 10.0 mi SE 3.5 mph - N/A   Clear
4:15 AM 30.2 °F 24.3 °F 24.8 °F 80% 30.31 in 10.0 mi SE 5.8 mph - N/A   Clear
4:35 AM 30.2 °F 25.4 °F 24.8 °F 80% 30.31 in 10.0 mi ESE 4.6 mph - N/A   Clear
4:55 AM 32.0 °F 27.5 °F 24.8 °F 75% 30.31 in 10.0 mi ESE 4.6 mph - N/A   Clear
5:15 AM 30.2 °F 25.4 °F 24.8 °F 80% 30.31 in 10.0 mi SE 4.6 mph - N/A   Clear
5:35 AM 30.2 °F 25.4 °F 24.8 °F 80% 30.31 in 10.0 mi SE 4.6 mph - N/A   Clear
5:55 AM 30.2 °F 26.7 °F 24.8 °F 80% 30.31 in 10.0 mi ESE 3.5 mph - N/A   Clear
6:15 AM 28.4 °F 23.3 °F 24.8 °F 86% 30.31 in 10.0 mi ESE 4.6 mph - N/A   Clear
6:35 AM 28.4 °F 24.6 °F 24.8 °F 86% 30.31 in 10.0 mi East 3.5 mph - N/A   Clear
6:55 AM 28.4 °F - 24.8 °F 86% 30.32 in 10.0 mi Calm Calm - N/A   Clear
7:15 AM 28.4 °F 24.6 °F 26.6 °F 93% 30.33 in 10.0 mi ESE 3.5 mph - N/A   Clear
7:35 AM 26.6 °F 22.6 °F 24.8 °F 93% 30.33 in 10.0 mi ESE 3.5 mph - N/A   Clear
7:55 AM 28.4 °F 24.6 °F 26.6 °F 93% 30.33 in 10.0 mi ESE 3.5 mph - N/A   Clear
8:15 AM 32.0 °F 28.7 °F 28.4 °F 87% 30.33 in 10.0 mi ESE 3.5 mph - N/A   Clear
8:35 AM 32.0 °F 28.7 °F 30.2 °F 93% 30.33 in 10.0 mi ESE 3.5 mph - N/A   Clear
8:55 AM 35.6 °F 31.7 °F 30.2 °F 81% 30.33 in 10.0 mi ESE 4.6 mph - N/A   Clear
9:15 AM 37.4 °F 33.8 °F 30.2 °F 75% 30.33 in 10.0 mi East 4.6 mph - N/A   Clear
9:35 AM 41.0 °F 39.0 °F 30.2 °F 65% 30.33 in 10.0 mi ESE 3.5 mph - N/A   Clear
9:55 AM 44.6 °F 43.1 °F 28.4 °F 53% 30.33 in 10.0 mi SE 3.5 mph - N/A   Clear
10:15 AM 44.6 °F 43.1 °F 30.2 °F 57% 30.33 in 10.0 mi SE 3.5 mph - N/A   Clear
10:35 AM 46.4 °F 45.2 °F 30.2 °F 53% 30.33 in 10.0 mi SE 3.5 mph - N/A   Clear
10:55 AM 53.6 °F - 30.2 °F 41% 30.31 in 10.0 mi South 5.8 mph - N/A   Clear
11:15 AM 55.4 °F - 30.2 °F 38% 30.30 in 10.0 mi SW 5.8 mph - N/A   Clear
11:35 AM 59.0 °F - 30.2 °F 34% 30.29 in 10.0 mi SW 4.6 mph - N/A   Clear
11:55 AM 60.8 °F - 30.2 °F 31% 30.28 in 10.0 mi SSW 10.4 mph - N/A   Clear
12:15 PM 60.8 °F - 28.4 °F 29% 30.26 in 10.0 mi SSW 9.2 mph - N/A   Clear
12:35 PM 62.6 °F - 28.4 °F 27% 30.25 in 10.0 mi SSW 11.5 mph 17.3 mph N/A   Clear
12:55 PM 64.4 °F - 28.4 °F 26% 30.24 in 10.0 mi South 5.8 mph 16.1 mph N/A   Clear
1:15 PM 64.4 °F - 26.6 °F 24% 30.23 in 10.0 mi SSW 18.4 mph 24.2 mph N/A   Clear
1:35 PM 64.4 °F - 24.8 °F 22% 30.21 in 10.0 mi SSW 13.8 mph - N/A   Clear
1:55 PM 64.4 °F - 26.6 °F 24% 30.20 in 10.0 mi South 10.4 mph - N/A   Clear
2:15 PM 64.4 °F - 28.4 °F 26% 30.19 in 10.0 mi SSE 11.5 mph 17.3 mph N/A   Clear
2:35 PM 64.4 °F - 28.4 °F 26% 30.17 in 10.0 mi South 12.7 mph - N/A   Clear
2:55 PM 64.4 °F - 28.4 °F 26% 30.17 in 10.0 mi South 12.7 mph - N/A   Clear
3:15 PM 64.4 °F - 32.0 °F 30% 30.16 in 10.0 mi South 12.7 mph 17.3 mph N/A   Clear
3:35 PM 64.4 °F - 32.0 °F 30% 30.16 in 10.0 mi South 15.0 mph 21.9 mph N/A   Clear
3:55 PM 64.4 °F - 33.8 °F 32% 30.15 in 10.0 mi South 9.2 mph - N/A   Clear
4:15 PM 64.4 °F - 35.6 °F 34% 30.15 in 10.0 mi South 13.8 mph 17.3 mph N/A   Clear
4:35 PM 62.6 °F - 35.6 °F 37% 30.16 in 10.0 mi South 12.7 mph 19.6 mph N/A   Clear
4:55 PM 62.6 °F - 35.6 °F 37% 30.16 in 10.0 mi South 11.5 mph - N/A   Clear
5:15 PM 60.8 °F - 37.4 °F 42% 30.15 in 10.0 mi South 8.1 mph - N/A   Clear
5:35 PM 59.0 °F - 37.4 °F 45% 30.16 in 10.0 mi South 9.2 mph - N/A   Clear
5:55 PM 59.0 °F - 37.4 °F 45% 30.15 in 10.0 mi South 6.9 mph - N/A   Clear
6:15 PM 55.4 °F - 37.4 °F 51% 30.15 in 10.0 mi SSE 5.8 mph - N/A   Clear
6:35 PM 57.2 °F - 39.2 °F 51% 30.14 in 10.0 mi SSE 8.1 mph - N/A   Clear
6:55 PM 55.4 °F - 41.0 °F 58% 30.14 in 10.0 mi SSE 8.1 mph - N/A   Clear
7:15 PM 55.4 °F - 41.0 °F 58% 30.13 in 10.0 mi SSE 8.1 mph - N/A   Clear
7:35 PM 55.4 °F - 41.0 °F 58% 30.12 in 10.0 mi SSE 8.1 mph - N/A   Clear
7:55 PM 55.4 °F - 41.0 °F 58% 30.12 in 10.0 mi SE 5.8 mph - N/A   Clear
8:15 PM 55.4 °F - 41.0 °F 58% 30.12 in 10.0 mi SSE 5.8 mph - N/A   Clear
8:35 PM 53.6 °F - 41.0 °F 62% 30.12 in 10.0 mi SE 5.8 mph - N/A   Clear
8:55 PM 53.6 °F - 41.0 °F 62% 30.12 in 10.0 mi SE 5.8 mph - N/A   Clear
9:15 PM 53.6 °F - 41.0 °F 62% 30.11 in 10.0 mi SE 5.8 mph - N/A   Clear
9:35 PM 53.6 °F - 41.0 °F 62% 30.11 in 10.0 mi SE 8.1 mph - N/A   Clear
9:55 PM 55.4 °F - 42.8 °F 63% 30.11 in 10.0 mi SSE 10.4 mph - N/A   Clear
10:15 PM 55.4 °F - 42.8 °F 63% 30.11 in 10.0 mi SSE 9.2 mph - N/A   Scattered Clouds
10:35 PM 55.4 °F - 42.8 °F 63% 30.10 in 10.0 mi SSE 9.2 mph - N/A   Mostly Cloudy
10:55 PM 55.4 °F - 44.6 °F 67% 30.10 in 10.0 mi South 9.2 mph - N/A   Mostly Cloudy
11:15 PM 55.4 °F - 44.6 °F 67% 30.10 in 10.0 mi South 10.4 mph - N/A   Scattered Clouds
11:35 PM 55.4 °F - 44.6 °F 67% 30.10 in 10.0 mi SSE 10.4 mph - N/A   Scattered Clouds
11:55 PM 55.4 °F - 46.4 °F 72% 30.09 in 10.0 mi SSE 8.1 mph - N/A   Clear